Location: Newark
(44.0160°N, 116.9215°W)
Time: 16:51:22
(UTC+00:00)

ISS - Visible Passes

Search period start: 18 November 2019 00:00
Search period end: 28 November 2019 00:00
Orbit: 412 x 421 km, 51.6° (Epoch: 18 November)

Date Brightness Start Highest point End Pass type
(mag) Time Alt. Az. Time Alt. Az. Time Alt. Az.
21 Nov -1.0 02:46:07 10° SW 02:46:45 15° SW 02:46:45 15° SW visible
22 Nov -2.5 01:58:05 10° SSW 02:00:39 29° SSE 02:00:39 29° SSE visible
23 Nov -1.9 01:10:25 10° S 01:12:48 18° SE 01:14:27 13° E visible
23 Nov -1.4 02:45:53 10° WSW 02:47:22 24° WSW 02:47:22 24° WSW visible
24 Nov -3.9 01:57:26 10° SW 02:00:47 78° SSE 02:01:05 69° E visible
25 Nov -3.3 01:09:10 10° SW 01:12:22 46° SE 01:14:43 17° ENE visible
25 Nov -1.3 02:46:05 10° W 02:47:37 22° WNW 02:47:37 22° WNW visible
26 Nov -3.2 01:57:24 10° W 02:00:38 47° NNW 02:01:11 42° N visible
27 Nov -3.6 01:08:47 10° WSW 01:12:07 71° NNW 01:14:41 16° NE visible
27 Nov -1.0 02:46:28 10° WNW 02:47:35 17° NW 02:47:35 17° NW visible
